SCP
0 0 0 0 0 0 0 0 0 0 0 0 0 0 0 0 0 0 0 0 0 0 0 0 0 0 0 0 0 0 0 0 0 0 0 0 0 0 0 0 0 0 0
0 0 0 0 0 0 0 0 0 0 0 0 0 0 0 0 0 0 0 0 0 0 0 0 0 0 0 0 0 0 0 0 0 0 0 0 0 0 0 0 0 0 0
0 0 0 0 0 0 0 0 0 0 0 0 0 0 0 0 0 0 0 0 0 0 0 0 0 0 0 0 0 0 0 0 0 0 0 0 0 0 0 0 0 0 0
0 0 0 0 0 0 0 0 0 0 0 0 0 0 0 0 0 0 0 0 0 0 0 0 0 0 0 0 0 0 0 0 0 0 0 0 0 0 0 0 0 0 0
0 0 0 0 0 0 0 0 0 0 0 0 0 0 0 0 0 0 0 0 0 0 0 0 0 0 0 0 0 0 0 0 0 0 0 0 0 0 0 0 0 0 0
0 0 0 0 0 0 0 0 0 0 0 0 0 0 0 0 0 0 0 0 0 0 0 0 0 0 0 0 0 0 0 0 0 0 0 0 0 0 0 0 0 0 0
0 0 0 0 0 0 0 0 0 0 0 0 0 0 0 0 0 0 0 0 0 0 0 0 0 0 0 0 0 0 0 0 0 0 0 0 0 0 0 0 0 0 0
0 0 0 0 0 0 0 0 0 0 0 0 0 0 0 0 0 0 0 0 0 0 0 0 0 0 0 0 0 0 0 0 0 0 0 0 0 0 0 0 0 0 0
0 0 0 0 0 0 0 0 0 0 0 0 0 0 0 0 0 0 0 0 0 0 0 0 0 0 0 0 0 0 0 0 0 0 0 0 0 0 0 0 0 0 0
0 0 0 0 0 0 0 0 0 0 0 0 0 0 0 0 0 0 0 0 0 0 0 0 0 0 0 0 0 0 0 0 0 0 0 0 0 0 0 0 0 0 0
0 0 0 0 0 0 0 0 0 0 0 0 0 0 0 0 0 0 0 0 0 0 0 0 0 0 0 0 0 0 0 0 0 0 0 0 0 0 0 0 0 0 0
0 0 0 0 0 0 0 0 0 0 0 0 0 0 0 0 0 0 0 0 0 0 0 0 0 0 0 0 0 0 0 0 0 0 0 0 0 0 0 0 0 0 0
0 0 0 0 0 0 0 0 0 0 0 0 0 0 0 0 0 0 0 0 0 0 0 0 0 0 0 0 0 0 0 0 0 0 0 0 0 0 0 0 0 0 0
0 0 0 0 0 0 0 0 0 0 0 0 0 0 0 0 0 0 0 0 0 0 0 0 0 0 0 0 0 0 0 0 0 0 0 0 0 0 0 0 0 0 0
0 0 0 0 0 0 0 0 0 0 0 0 0 0 0 0 0 0 0 0 0 0 0 0 0 0 0 0 0 0 0 0 0 0 0 0 0 0 0 0 0 0 0
0 0 0 0 0 0 0 0 0 0 0 0 0 0 0 0 0 0 0 0 0 0 0 0 0 0 0 0 0 0 0 0 0 0 0 0 0 0 0 0 0 0 0
0 0 0 0 0 0 0 0 0 0 0 0 0 0 0 0 0 0 0 0 0 0 0 0 0 0 0 0 0 0 0 0 0 0 0 0 0 0 0 0 0 0 0
0 0 0 0 0 0 0 0 0 0 0 0 0 0 0 0 0 0 0 0 0 0 0 0 0 0 0 0 0 0 0 0 0 0 0 0 0 0 0 0 0 0 0
0 0 0 0 0 0 0 0 0 0 0 0 0 0 0 0 0 0 0 0 0 0 0 0 0 0 0 0 0 0 0 0 0 0 0 0 0 0 0 0 0 0 0
0 0 0 0 0 0 0 0 0 0 0 0 0 0 0 0 0 0 0 0 0 0 0 0 0 0 0 0 0 0 0 0 0 0 0 0 0 0 0 0 0 0 0
0 0 0 0 0 0 0 0 0 0 0 0 0 0 0 0 0 0 0 0 0 0 0 0 0 0 0 0 0 0 0 0 0 0 0 0 0 0 0 0 0 0 0
0 0 0 0 0 0 0 0 0 0 0 0 0 0 0 0 0 0 0 0 0 0 0 0 0 0 0 0 0 0 0 0 0 0 0 0 0 0 0 0 0 0 0
0 0 0 0 0 0 0 0 0 0 0 0 0 0 0 0 0 0 0 0 0 0 0 0 0 0 0 0 0 0 0 0 0 0 0 0 0 0 0 0 0 0 0
0 0 0 0 0 0 0 0 0 0 0 0 0 0 0 0 0 0 0 0 0 0 0 0 0 0 0 0 0 0 0 0 0 0 0 0 0 0 0 0 0 0 0
0 0 0 0 0 0 0 0 0 0 0 0 0 0 0 0 0 0 0 0 0 0 0 0 0 0 0 0 0 0 0 0 0 0 0 0 0 0 0 0 0 0 0
0 0 0 0 0 0 0 0 0 0 0 0 0 0 0 0 0 0 0 0 0 0 0 0 0 0 0 0 0 0 0 0 0 0 0 0 0 0 0 0 0 0 0
Wind_Speed
1 2 6 7 7 8 8 9 9 10 10 10 11 10 11 12 12 12 12 12 11 11 11 10 10 10 10 10 10 10 10 10 10 9 9 9 9 9 8 9 9 7 10
3 3 7 7 8 8 8 8 8 9 9 9 10 10 10 11 11 11 11 11 11 10 10 9 9 9 9 9 9 9 9 9 8 8 8 8 8 8 8 8 8 6 9
4 3 6 7 8 7 7 7 7 8 8 9 9 9 9 9 9 9 9 10 10 9 9 8 8 8 8 8 8 8 8 8 7 7 6 4 5 7 7 7 8 9 9
5 3 4 7 7 7 6 7 7 8 8 8 8 8 8 8 8 8 8 9 9 9 9 8 8 8 8 8 7 7 7 7 6 6 3 3 3 6 7 7 8 8 9
4 3 3 7 6 6 6 6 6 6 7 7 7 7 7 7 7 8 8 8 8 8 8 8 7 7 8 7 7 6 6 6 6 4 3 2 2 5 7 7 8 8 9
4 2 2 7 6 6 6 6 6 5 5 5 5 6 6 6 6 7 7 7 7 7 7 7 7 6 7 7 7 6 6 6 4 3 3 3 3 6 7 7 8 8 9
3 2 2 6 6 5 5 5 4 4 4 4 4 5 5 5 5 6 6 6 6 6 6 6 7 7 7 6 6 6 6 6 4 3 3 3 4 6 7 7 8 8 8
4 2 2 4 5 4 4 4 4 3 3 3 3 4 4 5 5 5 5 5 6 5 6 6 6 6 6 6 5 5 5 5 4 3 3 3 5 6 6 7 8 8 8
4 3 2 1 2 3 3 3 3 3 2 2 2 3 3 3 3 3 5 5 5 5 5 6 6 6 5 5 5 5 5 5 3 2 3 3 5 7 7 8 8 8 8
3 3 2 2 2 1 0 2 2 2 2 1 1 2 2 2 2 2 2 3 4 4 4 5 6 5 5 5 6 6 5 4 3 3 2 4 6 7 7 8 9 9 9
2 2 1 2 2 1 1 0 0 0 0 1 1 0 0 1 0 0 1 2 3 3 4 4 4 5 5 5 6 6 4 2 3 2 3 5 7 8 8 8 9 9 9
1 0 1 1 1 1 1 1 1 1 1 1 2 2 1 1 1 0 1 1 2 3 3 3 4 3 2 2 3 4 2 2 2 2 3 6 7 8 8 8 8 9 9
1 0 0 0 0 1 0 1 1 1 1 1 2 1 1 1 1 1 1 1 2 2 1 1 1 0 1 1 2 2 2 2 2 2 3 6 6 8 8 8 8 9 9
1 1 0 0 1 0 0 0 0 0 1 1 1 2 1 1 1 1 1 1 1 1 1 1 0 0 1 1 2 2 2 2 2 2 3 6 7 8 8 9 9 9 9
2 1 0 1 1 1 1 0 1 0 1 1 1 1 1 0 1 1 1 1 1 1 1 1 0 0 0 1 1 2 3 3 3 2 2 5 6 7 7 8 8 8 8
2 2 1 1 1 1 1 1 1 1 1 1 1 1 1 1 0 1 1 1 1 1 1 0 0 1 1 1 1 1 2 2 2 3 2 3 5 5 6 6 6 6 7
2 1 1 1 1 1 1 1 1 1 1 1 1 1 1 1 1 1 1 1 1 1 1 0 1 0 0 0 1 1 1 1 1 2 2 1 2 3 4 4 5 5 5
2 2 1 1 2 1 1 0 1 1 1 0 1 1 1 1 1 1 0 1 1 1 1 1 1 1 0 0 0 1 0 1 1 1 1 1 1 1 2 3 3 4 4
2 2 1 1 2 1 1 1 1 1 1 0 1 1 1 1 1 1 0 0 0 1 1 0 1 1 0 1 0 0 1 0 1 1 1 1 1 1 1 2 3 3 4
2 2 1 1 1 2 2 2 1 1 1 1 1 1 1 1 1 1 0 1 0 1 1 1 1 1 1 0 0 1 1 0 0 0 1 1 1 1 1 1 1 2 3
1 1 1 1 1 1 1 1 0 0 1 1 1 1 1 1 1 1 1 1 1 1 0 1 1 1 1 1 1 1 1 1 0 0 0 0 0 1 1 1 1 1 2
2 2 1 1 1 1 1 1 1 1 0 0 1 2 2 2 1 0 0 0 0 0 1 1 1 1 0 1 1 1 2 2 2 1 0 0 1 1 1 1 1 2 2
3 3 3 2 1 1 1 1 1 1 1 1 2 2 2 2 2 1 1 0 0 1 0 0 1 2 1 0 1 2 2 1 2 2 1 1 1 1 1 1 1 2 2
4 3 3 2 1 1 2 2 2 2 1 0 0 1 2 2 2 2 1 1 1 1 0 0 1 1 2 1 0 0 1 2 1 1 2 1 2 1 2 1 1 1 1
4 4 3 2 1 1 2 2 2 1 0 0 1 2 2 2 2 2 1 1 1 0 0 0 1 1 1 1 1 1 1 1 1 1 2 2 2 2 1 1 1 1 1
3 3 3 2 1 1 2 2 2 2 1 1 1 2 2 2 2 2 2 1 1 0 0 0 0 1 1 1 1 1 1 1 1 1 2 2 2 2 2 1 1 1 1
Wind_Direction
170 169 152 142 135 129 124 118 115 115 118 123 131 139 142 147 149 152 153 153 152 150 150 147 144 141 140 138 135 136 133 131 130 132 133 134 134 133 135 135 133 133 137
146 152 153 145 139 131 127 126 125 123 125 127 130 134 140 145 150 153 155 154 154 152 152 150 148 146 144 142 139 138 137 136 136 136 137 137 137 138 139 139 140 139 141
125 142 152 147 141 134 130 128 130 130 130 129 130 133 137 143 148 151 155 156 156 156 156 155 152 152 150 147 145 144 142 141 142 141 136 133 139 141 143 145 147 145 142
126 128 144 148 143 136 130 126 127 129 128 129 132 134 139 141 146 147 152 157 160 161 161 163 161 159 156 154 152 151 151 152 150 146 134 141 155 152 152 151 150 151 149
108 113 145 145 142 139 138 131 124 126 128 130 133 135 140 145 148 155 158 163 168 170 167 165 168 166 164 163 163 161 160 161 160 146 143 153 170 165 161 160 157 159 158
93 94 144 145 140 134 131 132 131 131 131 136 142 145 146 148 153 159 163 166 169 175 173 172 175 175 176 176 175 171 170 172 157 141 153 168 176 180 176 174 169 168 167
99 86 108 138 135 131 133 133 131 131 133 138 145 152 154 156 159 164 169 174 175 183 184 180 182 186 187 185 185 183 178 175 158 154 163 174 190 188 187 184 177 172 171
104 90 82 133 132 132 136 142 143 141 139 143 147 150 158 166 173 176 179 176 177 183 191 193 194 196 197 193 192 191 185 178 167 168 172 184 196 196 197 187 181 182 183
86 75 42 56 117 142 139 140 145 144 133 125 160 172 168 166 171 188 193 191 192 194 195 201 202 200 203 199 197 194 191 187 169 178 182 189 200 203 202 190 189 192 192
73 66 48 34 37 42 83 160 153 134 115 98 140 163 171 172 171 189 196 196 202 210 209 211 212 209 203 200 199 200 197 195 181 189 195 200 203 208 209 201 198 199 201
73 47 45 36 32 31 27 349 205 162 67 66 41 84 162 34 44 257 227 211 218 222 224 226 227 215 208 203 202 202 199 184 181 199 205 211 209 213 214 211 208 207 207
113 38 46 45 32 33 21 24 6 7 10 31 28 7 24 36 33 35 284 259 266 254 248 245 235 220 209 204 210 207 185 185 196 209 217 218 216 215 218 217 215 211 211
180 165 40 46 31 63 39 35 21 15 13 20 24 28 39 35 21 8 355 320 317 301 298 293 284 227 186 180 190 186 188 195 206 218 222 221 223 223 222 218 217 217 217
141 195 290 53 52 33 62 23 39 41 31 24 9 27 43 40 29 11 360 337 338 328 324 320 324 244 194 185 184 191 199 205 216 225 230 229 230 232 224 221 220 219 218
155 173 178 103 82 50 62 8 52 64 64 41 30 25 42 51 18 7 352 347 335 335 333 320 276 253 222 195 190 196 209 213 222 225 245 240 234 231 224 223 222 219 219
182 187 165 142 123 92 82 64 49 59 67 57 39 18 33 53 36 26 6 352 339 333 312 276 255 243 235 215 234 225 219 213 225 225 237 251 241 232 231 228 225 226 224
182 180 172 154 109 103 102 85 66 52 71 55 17 19 33 42 40 50 28 351 333 344 2 65 58 76 124 177 284 277 236 220 215 212 225 238 257 250 246 240 233 230 230
156 147 154 142 115 113 105 82 52 47 66 31 17 20 24 26 52 65 36 336 340 10 47 92 91 90 50 58 317 296 269 225 238 222 207 216 239 255 253 240 236 230 226
160 147 132 94 98 101 75 63 58 43 35 1 28 14 2 4 32 85 41 317 20 44 38 68 86 114 94 41 13 346 344 192 245 217 203 210 220 231 257 266 247 228 229
151 143 139 101 78 89 78 60 41 30 11 5 21 10 357 353 28 78 38 333 59 71 49 46 66 79 98 24 18 31 18 357 30 223 226 212 221 228 236 253 260 235 223
141 141 155 149 118 104 91 94 191 292 323 358 11 21 12 1 17 55 36 9 45 77 79 101 94 79 51 50 70 22 2 337 0 340 279 120 273 256 230 225 227 240 237
182 187 177 187 156 142 152 191 178 167 182 329 353 18 19 11 3 40 69 326 93 121 66 82 104 90 49 67 106 90 7 345 333 328 295 208 266 261 246 234 219 220 231
196 196 195 201 192 183 158 110 94 73 47 27 14 11 6 8 5 14 30 68 77 130 156 175 147 146 158 50 95 131 140 237 306 324 306 306 303 253 262 246 223 226 220
203 193 187 182 181 168 137 117 128 122 123 241 327 3 358 11 7 360 15 53 76 85 113 235 128 151 151 160 132 77 159 156 170 316 328 338 327 299 293 281 251 226 219
190 184 181 169 171 156 145 147 131 114 144 77 50 35 14 5 5 5 7 36 46 44 30 341 112 135 155 162 159 151 128 98 121 197 287 326 338 322 312 294 267 260 245
177 175 165 163 187 175 158 151 151 151 136 83 38 17 2 354 355 3 7 28 37 29 327 271 184 155 162 155 154 146 151 153 183 193 228 278 301 301 301 283 253 253 255